W5GFI Weather Reports


time (UTC)temp
C
wind
direction
speed
KPH
gust
KPH
rain 1hr
cm
rain 24hr
cm
rain mn
cm
humidity
%
barometer
mb
20260510143056 17 16 1.6 9.7 0.00 0.00 0.00 78 1017.0
20260510141524 17 46 3.2 12.9 0.00 0.00 0.00 79 1017.3
20260510140100 17 73 1.6 6.4 0.00 0.00 0.00 80 1017.3
20260510134531 16 29 1.6 6.4 0.00 0.00 0.00 79 1016.9
20260510133015 16 4 3.2 9.7 0.00 0.00 0.00 79 1016.5
20260510131549 16 65 1.6 6.4 0.00 0.00 0.00 79 1016.4
20260510130019 16 23 1.6 6.4 0.00 0.00 0.00 79 1016.0
20260510124606 16 359 0.0 4.8 0.00 0.00 0.00 80 1015.9
20260510123029 16 35 0.0 9.7 0.00 0.00 0.00 81 1015.4
20260510121502 16 95 0.0 4.8 0.00 0.00 0.00 83 1014.8
20260510120047 15 4 3.2 9.7 0.00 0.00 0.00 84 1014.8
20260510114518 15 141 0.0 0.0 0.00 0.00 0.00 85 1014.1
20260510113054 15 141 0.0 1.6 0.00 0.00 0.00 84 1013.6
20260510111540 15 105 0.0 4.8 0.00 0.00 0.00 84 1013.2
20260510110012 15 120 0.0 3.2 0.00 0.00 0.00 84 1013.0
20260510104605 15 201 0.0 1.6 0.00 0.00 0.00 83 1013.1
20260510103039 15 218 0.0 0.0 0.00 0.00 0.00 82 1013.0
20260510101514 16 217 0.0 0.0 0.00 0.00 0.00 82 1012.9
20260510100055 16 218 0.0 1.6 0.00 0.00 0.00 81 1012.9
20260510094531 16 218 0.0 1.6 0.00 0.00 0.00 81 1013.1
20260510093017 16 218 0.0 1.6 0.00 0.00 0.00 80 1012.9
20260510091553 16 45 1.6 4.8 0.00 0.00 0.00 80 1013.3
20260510090036 16 166 1.6 6.4 0.00 0.00 0.00 80 1012.8
20260510084517 17 50 0.0 4.8 0.00 0.00 0.00 80 1012.4
20260510083100 17 21 1.6 4.8 0.00 0.00 0.00 79 1012.0
20260510081527 17 21 0.0 1.6 0.00 0.03 0.00 78 1011.5
20260510080100 17 44 0.0 4.8 0.00 0.03 0.00 77 1011.1
20260510074527 17 359 0.0 3.2 0.00 0.03 0.00 75 1011.4
20260510073010 18 258 0.0 3.2 0.00 0.03 0.00 74 1011.3
20260510071556 18 258 0.0 0.0 0.00 0.03 0.00 70 1011.0
20260510070027 18 258 0.0 0.0 0.00 0.03 0.00 69 1011.4
20260510064502 19 257 0.0 6.4 0.00 0.03 0.00 67 1011.4
20260510063039 18 144 3.2 17.7 0.00 0.03 0.00 70 1010.9
20260510061512 17 119 1.6 6.4 0.00 0.03 0.00 78 1011.4
20260510060054 17 100 0.0 3.2 0.00 0.03 0.00 80 1012.1
20260510054524 17 147 0.0 0.0 0.00 0.03 0.00 80 1012.4
20260510053056 17 147 0.0 3.2 0.00 0.03 0.00 80 1012.9
20260510051552 17 111 0.0 3.2 0.00 0.03 0.03 81 1012.9
20260510050020 17 149 0.0 0.0 0.00 0.03 0.03 80 1012.8
20260510044556 17 148 0.0 3.2 0.00 0.03 0.03 80 1012.7
20260510043025 17 96 0.0 0.0 0.00 0.03 0.03 80 1012.2
20260510041507 17 96 0.0 0.0 0.00 0.03 0.03 79 1012.2
20260510040046 18 96 0.0 0.0 0.00 0.03 0.03 78 1012.0
20260510034529 18 96 0.0 0.0 0.00 0.03 0.03 76 1012.0
20260510033016 18 96 0.0 0.0 0.00 0.03 0.03 75 1011.9
20260510031555 18 96 0.0 0.0 0.00 0.03 0.03 73 1011.5
20260510030023 19 96 0.0 0.0 0.00 0.03 0.03 71 1011.2
20260510024603 20 95 0.0 0.0 0.00 0.03 0.03 69 1010.9
20260510023033 20 95 0.0 0.0 0.00 0.03 0.03 66 1010.5
20260510021507 21 96 0.0 0.0 0.00 0.03 0.03 62 1010.3
20260510020051 22 96 0.0 0.0 0.00 0.03 0.03 60 1009.9
20260510014522 22 95 0.0 0.0 0.00 0.03 0.03 57 1009.5
20260510013107 23 96 0.0 0.0 0.00 0.03 0.03 54 1009.4
20260510011537 25 96 0.0 0.0 0.00 0.03 0.03 52 1009.1
20260510010017 26 96 0.0 0.0 0.00 0.03 0.03 49 1008.8
20260510004600 26 96 0.0 1.6 0.00 0.03 0.03 45 1008.7
20260510003032 27 96 0.0 3.2 0.00 0.03 0.03 42 1008.5
20260510001510 28 152 0.0 1.6 0.00 0.05 0.03 38 1008.5
20260510000047 29 164 0.0 4.8 0.00 0.05 0.03 36 1008.5
20260509234524 30 156 0.0 6.4 0.00 0.05 0.03 32 1008.6
20260509233056 30 174 0.0 4.8 0.00 0.05 0.03 32 1008.7
20260509231534 30 211 0.0 4.8 0.00 0.13 0.03 32 1008.9
20260509230015 30 172 1.6 8.0 0.00 0.13 0.03 31 1009.1
20260509224554 30 231 1.6 8.0 0.00 0.13 0.03 31 1009.0
20260509223025 30 134 3.2 11.3 0.00 0.13 0.03 32 1008.9
20260509221612 30 102 3.2 9.7 0.00 0.13 0.03 34 1009.0
20260509220037 30 162 1.6 8.0 0.00 0.13 0.03 32 1009.1
20260509214519 30 242 3.2 8.0 0.00 0.13 0.03 30 1009.2
20260509213004 30 336 0.0 6.4 0.00 0.13 0.03 29 1009.4
20260509211544 30 256 0.0 6.4 0.00 0.13 0.03 39 1009.6
20260509210025 29 247 1.6 6.4 0.00 0.13 0.03 32 1009.7
20260509204508 30 229 4.8 8.0 0.00 0.13 0.03 31 1009.9
20260509203049 29 185 3.2 8.0 0.00 0.13 0.03 34 1010.0
20260509201527 29 313 1.6 11.3 0.00 0.13 0.03 35 1010.3
20260509200001 29 168 4.8 11.3 0.00 0.13 0.03 35 1010.4
20260509194538 28 253 1.6 11.3 0.00 0.13 0.03 36 1010.3
20260509193019 28 230 4.8 11.3 0.00 0.13 0.03 38 1010.5
20260509191612 28 265 3.2 8.0 0.00 0.13 0.03 43 1010.2
20260509190041 27 270 4.8 12.9 0.00 0.13 0.03 47 1010.4
20260509184523 27 251 3.2 12.9 0.00 0.13 0.03 42 1010.8
20260509183047 27 278 1.6 11.3 0.00 0.13 0.03 47 1010.7
20260509181520 27 219 1.6 11.3 0.00 0.13 0.03 49 1011.0
20260509180004 27 249 3.2 9.7 0.00 0.13 0.03 53 1010.9
20260509174541 26 311 1.6 9.7 0.00 0.13 0.03 59 1011.0
20260509173015 25 256 6.4 9.7 0.00 0.13 0.03 60 1011.2
20260509171605 25 185 4.8 11.3 0.00 0.13 0.03 63 1011.2
20260509170027 24 305 4.8 12.9 0.00 0.13 0.03 67 1011.4
20260509164555 23 285 6.4 12.9 0.00 0.13 0.03 68 1011.6
20260509163046 22 202 4.8 11.3 0.00 0.13 0.03 71 1011.5
20260509161513 22 198 3.2 8.0 0.00 0.13 0.03 75 1011.3
20260509160050 21 225 3.2 8.0 0.00 0.13 0.03 77 1011.4
20260509154520 20 105 6.4 11.3 0.00 0.13 0.03 79 1011.4
20260509153054 20 212 1.6 8.0 0.00 0.13 0.03 83 1011.2
20260509151536 19 168 1.6 6.4 0.00 0.13 0.03 86 1011.3
20260509150003 18 161 3.2 12.9 0.00 0.13 0.03 87 1011.5
20260509144546 17 137 3.2 6.4 0.00 0.13 0.03 92 1011.3